Kazbegi Street

Georgia     42˚39′31″N   44˚38′29″E
temp.,
°C
wind,
m/s
gust,
m/s
humid.,
%
clouds,
%
prec.,
mm/h
press.,
hPa
HPBL,
m
2 december, wed
wed201:00−6˚ssw337390 0.0 102643
04:00−7˚ssw337054 0.0 102734
07:00−7˚ssw336228 0.0 102726
10:00−4˚ssw226256 0.0 102737
13:00−1˚s126799 0.0 1025260
16:00−2˚s128382 0.0 102574
19:00−6˚ssw237619 0.0 102725
22:00−6˚ssw337617 0.0 102833
3 december, thu
thu301:00−6˚ssw44800 0.0 102858
04:00−6˚ssw44830 0.0 102952
07:00−6˚ssw33810 0.0 102931
10:00−3˚ssw22790 0.0 102968
13:00−1˚ssw23870 0.0 1027243
16:00−2˚ssw23912 0.0 1027190
19:00−6˚ssw33854 0.0 102835
22:00−6˚ssw44812 0.0 102855
4 december, fri
fri401:00−6˚ssw55840 0.0 102979
04:00−6˚ssw55840 0.0 102893
07:00−6˚ssw44790 0.0 102750
10:00−5˚ssw33770 0.0 102769
13:00−2˚s23800 0.0 1026208
16:00−4˚s23870 0.0 1025118
19:00−7˚ssw33730 0.0 102630
22:00−7˚ssw33670 0.0 102733
5 december, sat
sat501:00−8˚ssw34720 0.0 102742
04:00−8˚ssw33720 0.0 102631
07:00−9˚ssw22610 0.0 102622
10:00−6˚ssw11660 0.0 102655
13:00−3˚ne01750 0.0 1025307
16:00−5˚ene019313 0.0 1024104
19:00−9˚ssw228840 0.0 102658
22:00−9˚ssw338738 0.1 102788
6 december, sun
sun601:00−9˚ssw338635 0.0 102759
04:00−10˚ssw338517 0.0 102749
07:00−10˚ssw33860 0.0 102733
10:00−8˚s229011 0.1 102791
13:00−5˚s128747 0.1 1026387
16:00−6˚sw029260 0.3 1026287
19:00−10˚ssw229148 0.3 102742
22:00−10˚ssw338642 0.3 102849